Time,TemperatureF,DewpointF,PressureIn,WindDirection,WindDirectionDegrees,WindSpeedMPH,WindSpeedGustMPH,Humidity,HourlyPrecipIn,Conditions,Clouds,dailyrainin,SoftwareType,DateUTC
2013-01-20 00:00:00,30.0,16.0,-100.00,North,-999,0.0,0.0,55,-99.99,,,0.00,,2013-01-20 07:00:00,
2013-01-20 00:12:00,30.0,18.0,-100.00,North,-999,0.0,0.0,60,-99.99,,,0.00,,2013-01-20 07:12:00,
2013-01-20 00:22:00,30.0,18.0,-100.00,North,-999,0.0,0.0,60,-99.99,,,0.00,,2013-01-20 07:22:00,
2013-01-20 00:32:00,30.0,16.0,-100.00,North,-999,0.0,0.0,55,-99.99,,,0.00,,2013-01-20 07:32:00,
2013-01-20 00:42:00,30.0,16.0,-100.00,North,-999,0.0,0.0,55,-99.99,,,0.00,,2013-01-20 07:42:00,
2013-01-20 00:52:00,30.0,16.0,-100.00,North,-999,0.0,0.0,55,-99.99,,,0.00,,2013-01-20 07:52:00,
2013-01-20 01:00:00,34.0,15.0,-100.00,North,-999,0.0,0.0,46,-99.99,,,0.00,,2013-01-20 08:00:00,
2013-01-20 01:12:00,32.0,15.0,-100.00,North,-999,0.0,0.0,49,-99.99,,,0.00,,2013-01-20 08:12:00,
2013-01-20 01:22:00,32.0,15.0,-100.00,North,-999,0.0,0.0,49,-99.99,,,0.00,,2013-01-20 08:22:00,
2013-01-20 01:32:00,34.0,15.0,-100.00,North,-999,0.0,0.0,46,-99.99,,,0.00,,2013-01-20 08:32:00,
2013-01-20 01:42:00,34.0,15.0,-100.00,North,-999,0.0,0.0,46,-99.99,,,0.00,,2013-01-20 08:42:00,
2013-01-20 01:52:00,34.0,15.0,-100.00,North,-999,0.0,0.0,46,-99.99,,,0.00,,2013-01-20 08:52:00,
2013-01-20 02:01:00,32.0,14.0,-100.00,North,-999,0.0,0.0,46,-99.99,,,0.00,,2013-01-20 09:01:00,
2013-01-20 02:12:00,36.0,15.0,-100.00,North,-999,0.0,0.0,42,-99.99,,,0.00,,2013-01-20 09:12:00,
2013-01-20 02:22:00,36.0,15.0,-100.00,North,-999,0.0,0.0,42,-99.99,,,0.00,,2013-01-20 09:22:00,
2013-01-20 02:33:00,32.0,14.0,-100.00,North,-999,0.0,0.0,46,-99.99,,,0.00,,2013-01-20 09:33:00,
2013-01-20 02:42:00,32.0,14.0,-100.00,North,-999,0.0,0.0,46,-99.99,,,0.00,,2013-01-20 09:42:00,
2013-01-20 02:52:00,32.0,14.0,-100.00,North,-999,0.0,0.0,46,-99.99,,,0.00,,2013-01-20 09:52:00,
2013-01-20 03:00:00,29.0,15.0,-100.00,North,-999,0.0,0.0,55,-99.99,,,0.00,,2013-01-20 10:00:00,
2013-01-20 03:12:00,30.0,15.0,-100.00,North,-999,0.0,0.0,52,-99.99,,,0.00,,2013-01-20 10:12:00,
2013-01-20 03:22:00,30.0,15.0,-100.00,North,-999,0.0,0.0,52,-99.99,,,0.00,,2013-01-20 10:22:00,
2013-01-20 03:32:00,29.0,15.0,-100.00,North,-999,0.0,0.0,55,-99.99,,,0.00,,2013-01-20 10:32:00,
2013-01-20 03:42:00,29.0,15.0,-100.00,North,-999,0.0,0.0,55,-99.99,,,0.00,,2013-01-20 10:42:00,
2013-01-20 03:52:00,29.0,15.0,-100.00,North,-999,0.0,0.0,55,-99.99,,,0.00,,2013-01-20 10:52:00,
2013-01-20 04:00:00,26.0,16.0,-100.00,North,-999,0.0,0.0,66,-99.99,,,-99.99,,2013-01-20 11:00:00,
2013-01-20 04:12:00,27.0,16.0,-100.00,North,-999,0.0,0.0,62,-99.99,,,0.00,,2013-01-20 11:12:00,
2013-01-20 04:22:00,27.0,16.0,-100.00,North,-999,0.0,0.0,62,-99.99,,,0.00,,2013-01-20 11:22:00,
2013-01-20 04:32:00,26.0,16.0,-100.00,North,-999,0.0,0.0,66,-99.99,,,-99.99,,2013-01-20 11:32:00,
2013-01-20 04:42:00,26.0,16.0,-100.00,North,-999,0.0,0.0,66,-99.99,,,-99.99,,2013-01-20 11:42:00,
2013-01-20 04:53:00,26.0,16.0,-100.00,North,-999,0.0,0.0,66,-99.99,,,-99.99,,2013-01-20 11:53:00,
2013-01-20 05:00:00,21.0,16.0,-100.00,North,-999,0.0,0.0,79,-99.99,,,0.00,,2013-01-20 12:00:00,
2013-01-20 05:12:00,23.0,16.0,-100.00,North,-999,0.0,0.0,73,-99.99,,,-99.99,,2013-01-20 12:12:00,
2013-01-20 05:22:00,23.0,16.0,-100.00,North,-999,0.0,0.0,73,-99.99,,,-99.99,,2013-01-20 12:22:00,
2013-01-20 05:33:00,21.0,16.0,-100.00,North,-999,0.0,0.0,79,-99.99,,,0.00,,2013-01-20 12:33:00,
2013-01-20 05:43:00,21.0,16.0,-100.00,North,-999,0.0,0.0,79,-99.99,,,0.00,,2013-01-20 12:43:00,
2013-01-20 05:52:00,21.0,16.0,-100.00,North,-999,0.0,0.0,79,-99.99,,,0.00,,2013-01-20 12:52:00,
2013-01-20 06:00:00,21.0,16.0,-100.00,North,-999,0.0,0.0,80,-99.99,,,0.00,,2013-01-20 13:00:00,
2013-01-20 06:12:00,21.0,16.0,-100.00,North,-999,0.0,0.0,79,-99.99,,,-99.99,,2013-01-20 13:12:00,
2013-01-20 06:23:00,21.0,16.0,-100.00,North,-999,0.0,0.0,79,-99.99,,,-99.99,,2013-01-20 13:23:00,
2013-01-20 06:33:00,21.0,16.0,-100.00,North,-999,0.0,0.0,80,-99.99,,,0.00,,2013-01-20 13:33:00,
2013-01-20 06:42:00,21.0,16.0,-100.00,North,-999,0.0,0.0,80,-99.99,,,0.00,,2013-01-20 13:42:00,
2013-01-20 06:52:00,21.0,16.0,-100.00,North,-999,0.0,0.0,80,-99.99,,,0.00,,2013-01-20 13:52:00,
2013-01-20 07:00:00,20.0,16.0,-100.00,North,-999,0.0,0.0,83,-99.99,,,0.00,,2013-01-20 14:00:00,
2013-01-20 07:12:00,21.0,16.0,-100.00,North,-999,0.0,0.0,82,-99.99,,,0.00,,2013-01-20 14:12:00,
2013-01-20 07:22:00,21.0,16.0,-100.00,North,-999,0.0,0.0,82,-99.99,,,0.00,,2013-01-20 14:22:00,
2013-01-20 07:32:00,20.0,16.0,-100.00,North,-999,0.0,0.0,83,-99.99,,,0.00,,2013-01-20 14:32:00,
2013-01-20 07:42:00,20.0,16.0,-100.00,North,-999,0.0,0.0,83,-99.99,,,0.00,,2013-01-20 14:42:00,
2013-01-20 07:52:00,20.0,16.0,-100.00,North,-999,0.0,0.0,83,-99.99,,,0.00,,2013-01-20 14:52:00,
2013-01-20 08:01:00,20.0,16.0,-100.00,North,-999,0.0,0.0,85,-99.99,,,0.00,,2013-01-20 15:01:00,
2013-01-20 08:12:00,20.0,16.0,-100.00,North,-999,0.0,0.0,85,-99.99,,,0.00,,2013-01-20 15:12:00,
2013-01-20 08:22:00,20.0,16.0,-100.00,North,-999,0.0,0.0,85,-99.99,,,0.00,,2013-01-20 15:22:00,
2013-01-20 08:33:00,20.0,16.0,-100.00,North,-999,0.0,0.0,85,-99.99,,,0.00,,2013-01-20 15:33:00,
2013-01-20 08:42:00,20.0,16.0,-100.00,North,-999,0.0,0.0,85,-99.99,,,0.00,,2013-01-20 15:42:00,
2013-01-20 08:52:00,20.0,16.0,-100.00,North,-999,0.0,0.0,85,-99.99,,,0.00,,2013-01-20 15:52:00,
2013-01-20 09:00:00,19.0,14.0,-100.00,North,-999,0.0,0.0,83,-99.99,,,0.00,,2013-01-20 16:00:00,
2013-01-20 09:12:00,19.0,15.0,-100.00,North,-999,0.0,0.0,84,-99.99,,,0.00,,2013-01-20 16:12:00,
2013-01-20 09:22:00,19.0,15.0,-100.00,North,-999,0.0,0.0,84,-99.99,,,0.00,,2013-01-20 16:22:00,
2013-01-20 09:33:00,19.0,14.0,-100.00,North,-999,0.0,0.0,83,-99.99,,,0.00,,2013-01-20 16:33:00,
2013-01-20 09:42:00,19.0,14.0,-100.00,North,-999,0.0,0.0,83,-99.99,,,0.00,,2013-01-20 16:42:00,
2013-01-20 09:52:00,19.0,14.0,-100.00,North,-999,0.0,0.0,83,-99.99,,,0.00,,2013-01-20 16:52:00,
2013-01-20 10:00:00,18.0,13.0,-100.00,North,-999,0.0,0.0,82,-99.99,,,0.00,,2013-01-20 17:00:00,
2013-01-20 10:12:00,18.0,14.0,-100.00,North,-999,0.0,0.0,82,-99.99,,,0.00,,2013-01-20 17:12:00,
2013-01-20 10:22:00,18.0,14.0,-100.00,North,-999,0.0,0.0,82,-99.99,,,0.00,,2013-01-20 17:22:00,
2013-01-20 10:32:00,18.0,13.0,-100.00,North,-999,0.0,0.0,82,-99.99,,,0.00,,2013-01-20 17:32:00,
2013-01-20 10:42:00,18.0,13.0,-100.00,North,-999,0.0,0.0,82,-99.99,,,0.00,,2013-01-20 17:42:00,
2013-01-20 10:52:00,18.0,13.0,-100.00,North,-999,0.0,0.0,82,-99.99,,,0.00,,2013-01-20 17:52:00,
2013-01-20 11:01:00,18.0,14.0,-100.00,North,-999,0.0,0.0,82,-99.99,,,0.00,,2013-01-20 18:01:00,
2013-01-20 11:12:00,18.0,14.0,-100.00,North,-999,0.0,0.0,82,-99.99,,,0.00,,2013-01-20 18:12:00,
2013-01-20 11:23:00,18.0,14.0,-100.00,North,-999,0.0,0.0,82,-99.99,,,0.00,,2013-01-20 18:23:00,
2013-01-20 11:33:00,18.0,14.0,-100.00,North,-999,0.0,0.0,82,-99.99,,,0.00,,2013-01-20 18:33:00,
2013-01-20 11:42:00,18.0,14.0,-100.00,North,-999,0.0,0.0,82,-99.99,,,0.00,,2013-01-20 18:42:00,
2013-01-20 11:52:00,18.0,14.0,-100.00,North,-999,0.0,0.0,82,-99.99,,,0.00,,2013-01-20 18:52:00,
2013-01-20 12:00:00,19.0,14.0,-100.00,North,-999,0.0,0.0,79,-99.99,,,0.00,,2013-01-20 19:00:00,
2013-01-20 12:12:00,18.0,14.0,-100.00,North,-999,0.0,0.0,81,-99.99,,,0.00,,2013-01-20 19:12:00,
2013-01-20 12:22:00,18.0,14.0,-100.00,North,-999,0.0,0.0,81,-99.99,,,0.00,,2013-01-20 19:22:00,
2013-01-20 12:30:00,19.0,14.0,-100.00,North,-999,0.0,0.0,78,-99.99,,,0.00,,2013-01-20 19:30:00,
2013-01-20 12:33:00,19.0,14.0,-100.00,North,-999,0.0,0.0,79,-99.99,,,0.00,,2013-01-20 19:33:00,
2013-01-20 12:42:00,19.0,14.0,-100.00,North,-999,0.0,0.0,79,-99.99,,,0.00,,2013-01-20 19:42:00,
2013-01-20 12:52:00,19.0,14.0,-100.00,North,-999,0.0,0.0,79,-99.99,,,0.00,,2013-01-20 19:52:00,
2013-01-20 13:00:00,19.0,13.0,-100.00,North,-999,0.0,0.0,77,-99.99,,,0.00,,2013-01-20 20:00:00,
2013-01-20 13:12:00,19.0,14.0,-100.00,North,-999,0.0,0.0,78,-99.99,,,0.00,,2013-01-20 20:12:00,
2013-01-20 13:22:00,19.0,14.0,-100.00,North,-999,0.0,0.0,78,-99.99,,,0.00,,2013-01-20 20:22:00,
2013-01-20 13:53:00,19.0,13.0,-100.00,North,-999,0.0,0.0,77,-99.99,,,0.00,,2013-01-20 20:53:00,
2013-01-20 14:00:00,19.0,13.0,-100.00,North,-999,0.0,0.0,75,-99.99,,,0.00,,2013-01-20 21:00:00,
2013-01-20 14:13:00,20.0,14.0,-100.00,North,-999,0.0,0.0,77,-99.99,,,0.00,,2013-01-20 21:13:00,
2013-01-20 14:22:00,20.0,14.0,-100.00,North,-999,0.0,0.0,77,-99.99,,,0.00,,2013-01-20 21:22:00,
2013-01-20 14:33:00,19.0,13.0,-100.00,North,-999,0.0,0.0,75,-99.99,,,0.00,,2013-01-20 21:33:00,
2013-01-20 14:43:00,19.0,13.0,-100.00,North,-999,0.0,0.0,75,-99.99,,,0.00,,2013-01-20 21:43:00,
2013-01-20 14:52:00,19.0,13.0,-100.00,North,-999,0.0,0.0,75,-99.99,,,0.00,,2013-01-20 21:52:00,
2013-01-20 15:00:00,19.0,12.0,-100.00,North,-999,0.0,0.0,73,-99.99,,,0.00,,2013-01-20 22:00:00,
2013-01-20 15:12:00,19.0,12.0,-100.00,North,-999,0.0,0.0,73,-99.99,,,0.00,,2013-01-20 22:12:00,
2013-01-20 15:22:00,19.0,12.0,-100.00,North,-999,0.0,0.0,73,-99.99,,,0.00,,2013-01-20 22:22:00,
2013-01-20 15:33:00,19.0,12.0,-100.00,North,-999,0.0,0.0,73,-99.99,,,0.00,,2013-01-20 22:33:00,
2013-01-20 15:43:00,19.0,12.0,-100.00,North,-999,0.0,0.0,73,-99.99,,,0.00,,2013-01-20 22:43:00,
2013-01-20 15:52:00,19.0,12.0,-100.00,North,-999,0.0,0.0,73,-99.99,,,0.00,,2013-01-20 22:52:00,
2013-01-20 16:00:00,18.0,10.0,-100.00,North,-999,0.0,0.0,73,-99.99,,,0.00,,2013-01-20 23:00:00,
2013-01-20 16:12:00,18.0,11.0,-100.00,North,-999,0.0,0.0,73,-99.99,,,0.00,,2013-01-20 23:12:00,
2013-01-20 16:23:00,18.0,11.0,-100.00,North,-999,0.0,0.0,73,-99.99,,,0.00,,2013-01-20 23:23:00,
2013-01-20 16:33:00,18.0,10.0,-100.00,North,-999,0.0,0.0,73,-99.99,,,0.00,,2013-01-20 23:33:00,
2013-01-20 16:42:00,18.0,10.0,-100.00,North,-999,0.0,0.0,73,-99.99,,,0.00,,2013-01-20 23:42:00,
2013-01-20 16:52:00,18.0,10.0,-100.00,North,-999,0.0,0.0,73,-99.99,,,0.00,,2013-01-20 23:52:00,
2013-01-20 17:00:00,17.0,10.0,-100.00,North,-999,0.0,0.0,74,-99.99,,,0.00,,2013-01-21 00:00:00,
2013-01-20 17:13:00,17.0,10.0,-100.00,North,-999,0.0,0.0,74,-99.99,,,0.00,,2013-01-21 00:13:00,
2013-01-20 17:22:00,17.0,10.0,-100.00,North,-999,0.0,0.0,74,-99.99,,,0.00,,2013-01-21 00:22:00,
2013-01-20 17:33:00,17.0,10.0,-100.00,North,-999,0.0,0.0,74,-99.99,,,0.00,,2013-01-21 00:33:00,
2013-01-20 17:42:00,17.0,10.0,-100.00,North,-999,0.0,0.0,74,-99.99,,,0.00,,2013-01-21 00:42:00,
2013-01-20 17:53:00,17.0,10.0,-100.00,North,-999,0.0,0.0,74,-99.99,,,0.00,,2013-01-21 00:53:00,
2013-01-20 18:01:00,16.0,9.0,-100.00,North,-999,0.0,0.0,76,-99.99,,,0.00,,2013-01-21 01:01:00,
2013-01-20 18:12:00,16.0,10.0,-100.00,North,-999,0.0,0.0,76,-99.99,,,0.00,,2013-01-21 01:12:00,
2013-01-20 18:22:00,16.0,10.0,-100.00,North,-999,0.0,0.0,76,-99.99,,,0.00,,2013-01-21 01:22:00,
2013-01-20 18:32:00,16.0,9.0,-100.00,North,-999,0.0,0.0,76,-99.99,,,0.00,,2013-01-21 01:32:00,
2013-01-20 18:43:00,16.0,9.0,-100.00,North,-999,0.0,0.0,76,-99.99,,,0.00,,2013-01-21 01:43:00,
2013-01-20 18:52:00,16.0,9.0,-100.00,North,-999,0.0,0.0,76,-99.99,,,0.00,,2013-01-21 01:52:00,
2013-01-20 19:02:00,15.0,9.0,-100.00,North,-999,0.0,0.0,77,-99.99,,,0.00,,2013-01-21 02:02:00,
2013-01-20 19:12:00,16.0,9.0,-100.00,North,-999,0.0,0.0,76,-99.99,,,0.00,,2013-01-21 02:12:00,
2013-01-20 19:23:00,16.0,9.0,-100.00,North,-999,0.0,0.0,76,-99.99,,,0.00,,2013-01-21 02:23:00,
2013-01-20 19:33:00,15.0,9.0,-100.00,North,-999,0.0,0.0,77,-99.99,,,0.00,,2013-01-21 02:33:00,
2013-01-20 19:43:00,15.0,9.0,-100.00,North,-999,0.0,0.0,77,-99.99,,,0.00,,2013-01-21 02:43:00,
2013-01-20 19:52:00,15.0,9.0,-100.00,North,-999,0.0,0.0,77,-99.99,,,0.00,,2013-01-21 02:52:00,
2013-01-20 20:00:00,15.0,9.0,-100.00,North,-999,0.0,0.0,77,-99.99,,,0.00,,2013-01-21 03:00:00,
2013-01-20 20:12:00,16.0,10.0,-100.00,North,-999,0.0,0.0,76,-99.99,,,0.00,,2013-01-21 03:12:00,
2013-01-20 20:23:00,16.0,10.0,-100.00,North,-999,0.0,0.0,76,-99.99,,,0.00,,2013-01-21 03:23:00,
2013-01-20 20:33:00,15.0,9.0,-100.00,North,-999,0.0,0.0,77,-99.99,,,0.00,,2013-01-21 03:33:00,
2013-01-20 20:43:00,15.0,9.0,-100.00,North,-999,0.0,0.0,77,-99.99,,,0.00,,2013-01-21 03:43:00,
2013-01-20 20:52:00,15.0,9.0,-100.00,North,-999,0.0,0.0,77,-99.99,,,0.00,,2013-01-21 03:52:00,
2013-01-20 21:01:00,14.0,9.0,-100.00,North,-999,0.0,0.0,79,-99.99,,,0.00,,2013-01-21 04:01:00,
2013-01-20 21:12:00,15.0,9.0,-100.00,North,-999,0.0,0.0,78,-99.99,,,0.00,,2013-01-21 04:12:00,
2013-01-20 21:23:00,15.0,9.0,-100.00,North,-999,0.0,0.0,78,-99.99,,,0.00,,2013-01-21 04:23:00,
2013-01-20 21:32:00,14.0,9.0,-100.00,North,-999,0.0,0.0,79,-99.99,,,0.00,,2013-01-21 04:32:00,
2013-01-20 21:42:00,14.0,9.0,-100.00,North,-999,0.0,0.0,79,-99.99,,,0.00,,2013-01-21 04:42:00,
2013-01-20 21:52:00,14.0,9.0,-100.00,North,-999,0.0,0.0,79,-99.99,,,0.00,,2013-01-21 04:52:00,
2013-01-20 22:00:00,14.0,9.0,-100.00,North,-999,0.0,0.0,80,-99.99,,,0.00,,2013-01-21 05:00:00,
2013-01-20 22:12:00,14.0,9.0,-100.00,North,-999,0.0,0.0,80,-99.99,,,0.00,,2013-01-21 05:12:00,
2013-01-20 22:22:00,14.0,9.0,-100.00,North,-999,0.0,0.0,80,-99.99,,,0.00,,2013-01-21 05:22:00,
2013-01-20 22:33:00,14.0,9.0,-100.00,North,-999,0.0,0.0,80,-99.99,,,0.00,,2013-01-21 05:33:00,
2013-01-20 22:42:00,14.0,9.0,-100.00,North,-999,0.0,0.0,80,-99.99,,,0.00,,2013-01-21 05:42:00,
2013-01-20 22:52:00,14.0,9.0,-100.00,North,-999,0.0,0.0,80,-99.99,,,0.00,,2013-01-21 05:52:00,
2013-01-20 23:00:00,15.0,10.0,-100.00,North,-999,0.0,0.0,79,-99.99,,,0.00,,2013-01-21 06:00:00,
2013-01-20 23:12:00,15.0,10.0,-100.00,North,-999,0.0,0.0,80,-99.99,,,0.00,,2013-01-21 06:12:00,
2013-01-20 23:32:00,15.0,10.0,-100.00,North,-999,0.0,0.0,79,-99.99,,,0.00,,2013-01-21 06:32:00,
2013-01-20 23:43:00,15.0,10.0,-100.00,North,-999,0.0,0.0,79,-99.99,,,0.00,,2013-01-21 06:43:00,
2013-01-20 23:52:00,15.0,10.0,-100.00,North,-999,0.0,0.0,79,-99.99,,,0.00,,2013-01-21 06:52:00,